sat.trackr.live / text

‹ back to catalog

STARLINK-11311 [DTC]

NORAD 61253 · 2024-175L

PAYLOAD ACTIVE UNKNOWN

§ Identity

Operator
Country
US
Launch date
2024-09-25
Launch site
AFWTR
Launch vehicle
Mass (kg)
RCS (m²)

Purposes: comms

External: N2YO · Heavens-Above · Gunter

§ Orbital elements

Epoch: 2026-09-21T11:19:09.520608Z

Period
91.74 min
Inclination
53.1574°
Eccentricity
0.0001129
Mean motion
15.69705361 rev/d
Perigee alt
359.0 km
Apogee alt
360.5 km
Semi-major
6,737.9 km
B*
5.8004e-6
RAAN
171.3193°
Arg perigee
88.4088°
Mean anomaly
271.7059°
Rev number
11,532

§ Raw data

STARLINK-11311 [DTC]1 61253U 24175L   26264.47163797  .00000114  00000+0  58004-5 0  99972 61253  53.1574 171.3193 0001129  88.4088 271.7059 15.69705361115324

JSON: /api/v1/satellites/61253 · /tle

For live sub-satellite position, see the globe view (requires WebGL).

§ Visibility from observer

Set your observer location to see the next 7 days of passes ≥ 10°. The values pass through the URL so the page stays shareable.

No JS? Fill the form by hand. The geolocation button needs JavaScript.